1521324001.16,63809,10.19,71774.5,-9.91,-10.79,-10.79,0,*55
1521324002.42,63810,10.19,71772.3,-9.91,-10.89,-10.79,0,*52
1521324003.71,63811,10.19,71770.5,-9.91,-10.79,-10.75,0,*50
1521324004.96,63812,10.19,71772.0,-9.95,-10.85,-10.79,0,*58
1521324006.22,63813,10.19,71780.3,-9.95,-10.85,-10.79,0,*59
1521324007.45,63814,10.19,71780.8,-9.95,-10.85,-10.93,0,*5A
1521324008.67,63815,10.19,71778.0,-9.95,-10.85,-10.85,0,*5C
1521324009.89,63816,10.19,71776.0,-9.95,-10.85,-10.85,0,*5F
1521324011.18,63817,10.25,71768.5,-9.91,-10.79,-10.79,0,*5A
1521324012.41,63818,10.19,71770.0,-9.95,-10.93,-10.85,0,*56
1521324013.63,63819,10.19,71770.3,-9.95,-10.93,-10.85,0,*57
1521324014.86,63820,10.25,71782.5,-9.95,-10.93,-10.85,0,*5D
1521324016.06,63821,10.25,71780.3,-9.97,-10.85,-10.85,0,*59
1521324017.28,63822,10.19,71776.5,-9.95,-10.85,-10.85,0,*58
1521324018.51,63823,10.25,71778.5,-9.95,-10.85,-10.85,0,*59
1521324019.73,63824,10.19,71778.3,-9.95,-10.93,-10.85,0,*59
1521324020.96,63825,10.19,71776.5,-9.95,-10.85,-10.85,0,*5F
1521324022.18,63826,10.19,71790.0,-9.95,-10.85,-10.85,0,*5C
1521324023.4,63827,10.19,71774.5,-9.95,-10.85,-10.85,0,*5D
1521324024.62,63828,10.19,71770.5,-9.95,-10.85,-10.85,0,*52
1521324025.85,63829,10.19,71778.5,-9.95,-10.85,-10.85,0,*53
1521324027.07,63830,10.19,71772.5,-9.95,-10.85,-10.85,0,*5B
1521324028.3,63831,10.19,71768.3,-9.95,-10.93,-10.85,0,*5D
1521324029.53,63832,10.19,71774.8,-9.95,-10.93,-10.93,0,*59
1521324030.73,63833,10.19,71792.3,-9.97,-10.85,-10.85,0,*5A
1521324031.97,63834,10.19,71774.3,-9.95,-10.93,-10.93,0,*5F
1521324033.19,63835,10.19,71780.5,-9.95,-10.93,-10.85,0,*59
1521324034.42,63836,10.25,71784.3,-9.95,-10.85,-10.85,0,*5D
1521324035.65,63837,10.19,71780.8,-9.95,-10.85,-10.93,0,*5B
1521324036.85,63838,10.19,71776.5,-9.97,-10.85,-10.85,0,*51
1521324038.05,63839,10.19,71780.5,-9.97,-10.85,-10.85,0,*50
1521324039.28,63840,10.19,71776.3,-9.95,-10.93,-10.85,0,*5B
1521324040.5,63841,10.19,71776.0,-9.95,-10.93,-10.85,0,*5A
1521324041.71,63842,10.19,71782.5,-9.97,-10.85,-10.85,0,*5C
1521324042.94,63843,10.19,71788.5,-9.95,-10.85,-10.93,0,*58
1521324044.17,63844,10.19,71788.0,-9.95,-10.93,-10.93,0,*58
1521324045.38,63845,10.19,71774.3,-9.97,-10.85,-10.93,0,*5C
1521324046.61,63846,10.19,71780.3,-9.95,-10.85,-10.93,0,*5D
1521324047.82,63847,10.19,71776.0,-9.97,-10.93,-10.85,0,*5E
1521324049.05,63848,10.19,71778.3,-9.95,-10.93,-10.93,0,*54
1521324050.25,63849,10.19,71782.0,-9.97,-10.93,-10.85,0,*50
1521324051.48,63850,10.25,71784.5,-9.95,-10.85,-10.85,0,*5D
1521324052.7,63851,10.25,71786.8,-9.95,-10.93,-10.85,0,*5B
1521324053.94,63852,10.19,71788.0,-9.95,-10.93,-10.93,0,*5F
1521324055.16,63853,10.19,71782.3,-9.95,-10.93,-10.85,0,*59
1521324056.39,63854,10.19,71786.8,-9.95,-10.85,-10.85,0,*59
1521324057.6,63855,10.19,71790.3,-9.97,-10.93,-10.93,0,*5A
1521324058.83,63856,10.19,71782.3,-9.95,-10.93,-10.85,0,*5C
1521324060.05,63857,10.19,71782.8,-9.95,-10.93,-10.85,0,*5D
1521324061.28,63858,10.19,71780.5,-9.95,-10.93,-10.85,0,*52
1521324062.5,63859,10.19,71786.5,-9.95,-10.85,-10.85,0,*54
1521324063.73,63860,10.19,71788.3,-9.95,-10.93,-10.85,0,*59
1521324064.96,63861,10.19,71784.3,-9.95,-10.93,-10.85,0,*58
1521324066.19,63862,10.19,71794.3,-9.95,-10.93,-10.85,0,*5B
1521324067.41,63863,10.25,71790.8,-9.95,-10.85,-10.85,0,*5D
1521324068.63,63864,10.19,71794.5,-9.95,-10.85,-10.85,0,*5A
1521324069.86,63865,10.25,71790.0,-9.95,-10.93,-10.85,0,*5C
1521324071.08,63866,10.25,71794.5,-9.95,-10.85,-10.85,0,*58
1521324072.31,63867,10.19,71788.5,-9.95,-10.85,-10.93,0,*5E
1521324073.54,63868,10.25,71790.5,-9.95,-10.93,-10.85,0,*51
1521324074.74,63869,10.19,71790.0,-9.97,-10.93,-10.85,0,*52
1521324075.98,63870,10.19,71786.0,-9.95,-10.93,-10.93,0,*5F
1521324077.21,63871,10.25,71790.0,-9.95,-10.93,-10.93,0,*5E
1521324078.42,63872,10.19,71788.5,-9.97,-10.93,-10.85,0,*58
1521324079.64,63873,10.19,71786.3,-9.95,-10.85,-10.85,0,*5C
1521324080.87,63874,10.19,71790.0,-9.95,-10.85,-10.93,0,*5C
1521324082.1,63875,10.19,71788.3,-9.95,-10.85,-10.93,0,*5D
1521324083.33,63876,10.19,71790.0,-9.95,-10.93,-10.85,0,*5E
1521324084.55,63877,10.19,71794.3,-9.95,-10.93,-10.85,0,*5F
1521324085.78,63878,10.19,71798.8,-9.95,-10.85,-10.85,0,*57
1521324086.98,63879,10.19,71788.3,-9.97,-10.93,-10.85,0,*53
1521324088.21,63880,10.19,71788.8,-9.95,-10.85,-10.85,0,*50
1521324089.43,63881,10.19,71800.8,-9.95,-10.93,-10.85,0,*56
1521324090.66,63882,10.19,71798.0,-9.95,-10.85,-10.93,0,*55
1521324091.88,63883,10.19,71792.0,-9.95,-10.85,-10.85,0,*53
1521324093.09,63884,10.19,71792.3,-9.97,-10.93,-10.85,0,*51
1521324094.31,63885,10.19,71786.0,-9.95,-10.85,-10.85,0,*55
1521324095.54,63886,10.19,71784.3,-9.95,-10.85,-10.85,0,*56
1521324096.76,63887,10.19,71786.3,-9.95,-10.85,-10.85,0,*57
1521324097.98,63888,10.19,71780.5,-9.95,-10.85,-10.85,0,*58
1521324099.21,63889,10.19,71792.3,-9.95,-10.85,-10.85,0,*59
1521324100.41,63890,10.19,71794.3,-9.97,-10.85,-10.85,0,*53
1521324101.61,63891,10.19,71794.3,-9.97,-10.85,-10.85,0,*52
1521324102.81,63892,10.25,71798.5,-9.97,-10.85,-10.85,0,*51
1521324104.01,63893,10.19,71802.0,-9.97,-10.85,-10.85,0,*50
1521324105.24,63894,10.19,71798.5,-9.95,-10.93,-10.85,0,*52
1521324106.46,63895,10.19,71806.3,-9.95,-10.85,-10.85,0,*54
1521324107.69,63896,10.19,71802.0,-9.95,-10.85,-10.93,0,*50
1521324108.92,63897,10.19,71798.3,-9.95,-10.85,-10.85,0,*56
1521324110.14,63898,10.19,71796.8,-9.95,-10.85,-10.85,0,*59
1521324111.36,63899,10.19,71800.8,-9.95,-10.85,-10.85,0,*58
1521324112.58,63900,10.19,71798.3,-9.95,-10.85,-10.85,0,*59
1521324113.81,63901,10.19,71798.3,-9.95,-10.85,-10.85,0,*58
1521324115.03,63902,10.19,71792.3,-9.95,-10.85,-10.85,0,*5B
1521324116.23,63903,10.25,71802.8,-9.97,-10.85,-10.85,0,*58
1521324117.44,63904,10.19,71798.0,-9.97,-10.85,-10.85,0,*5F
1521324118.66,63905,10.19,71792.8,-9.95,-10.85,-10.85,0,*5C
1521324119.86,63906,10.19,71796.3,-9.97,-10.85,-10.85,0,*5D
1521324121.06,63907,10.19,71796.0,-9.97,-10.85,-10.85,0,*5C
1521324122.26,63908,10.19,71792.8,-9.97,-10.85,-10.85,0,*53
1521324123.49,63909,10.19,71798.3,-9.95,-10.85,-10.85,0,*50
1521324124.71,63910,10.19,71794.3,-9.95,-10.85,-10.85,0,*58
1521324125.91,63911,10.19,71792.5,-9.97,-10.85,-10.85,0,*5B
1521324127.12,63912,10.19,71796.0,-9.97,-10.93,-10.85,0,*5F
1521324128.34,63913,10.19,71800.0,-9.95,-10.85,-10.85,0,*5B
1521324129.54,63914,10.19,71796.8,-9.97,-10.85,-10.85,0,*5E
1521324130.77,63915,10.19,71794.8,-9.95,-10.85,-10.85,0,*5D
1521324131.99,63916,10.19,71798.0,-9.97,-10.79,-10.85,0,*5F
1521324133.2,63917,10.25,71798.3,-9.97,-10.85,-10.85,0,*5D
1521324134.4,63918,10.19,71798.8,-9.97,-10.85,-10.85,0,*52
1521324135.62,63919,10.19,71786.8,-9.95,-10.85,-10.85,0,*51
1521324136.82,63920,10.19,71794.8,-9.97,-10.85,-10.85,0,*59
1521324138.03,63921,10.25,71804.3,-9.97,-10.85,-10.85,0,*58
1521324139.28,63922,10.19,71798.3,-9.95,-10.79,-10.85,0,*5A
1521324140.5,63923,10.19,71804.8,-9.95,-10.85,-10.85,0,*58
1521324141.71,63924,10.19,71796.3,-9.97,-10.85,-10.93,0,*5A
1521324142.93,63925,10.19,71792.0,-9.95,-10.85,-10.85,0,*5E
1521324144.19,63926,10.19,71796.0,-9.95,-10.85,-10.79,0,*5E
1521324145.42,63927,10.25,71814.3,-9.97,-10.85,-10.79,0,*5D
1521324146.68,63928,10.19,71794.3,-9.97,-10.79,-10.79,0,*51
1521324147.93,63929,10.19,71792.0,-9.95,-10.79,-10.85,0,*51
1521324149.16,63930,10.19,71784.5,-9.97,-10.79,-10.85,0,*5B
1521324150.42,63931,10.19,71786.3,-9.97,-10.79,-10.79,0,*59
1521324151.71,63932,10.19,71792.8,-9.95,-10.79,-10.79,0,*58
1521324152.99,63933,10.19,71794.8,-9.95,-10.79,-10.79,0,*59
1521324154.27,63934,10.19,71790.0,-9.95,-10.79,-10.79,0,*5E
1521324155.55,63935,10.19,71792.5,-9.95,-10.79,-10.79,0,*5F
1521324156.81,63936,10.19,71800.8,-9.95,-10.85,-10.79,0,*5F
1521324158.07,63937,10.19,71804.8,-9.95,-10.85,-10.75,0,*52
1521324159.3,63938,10.19,71808.0,-9.97,-10.85,-10.79,0,*53
1521324160.54,63939,10.19,71810.8,-9.97,-10.85,-10.79,0,*52
1521324161.77,63940,10.19,71804.5,-9.97,-10.85,-10.79,0,*5C
1521324163.03,63941,10.19,71806.3,-9.95,-10.85,-10.79,0,*5F
1521324164.26,63942,10.19,71798.3,-9.97,-10.85,-10.79,0,*5E
1521324165.52,63943,10.19,71794.3,-9.95,-10.85,-10.79,0,*5D
1521324166.76,63944,10.19,71790.0,-9.97,-10.85,-10.79,0,*58
1521324168.01,63945,10.19,71788.0,-9.95,-10.85,-10.79,0,*5B
1521324169.25,63946,10.19,71786.3,-9.97,-10.85,-10.79,0,*5A
1521324170.45,63947,10.25,71780.8,-9.97,-10.85,-10.85,0,*58
1521324171.7,63948,10.19,71770.8,-9.95,-10.85,-10.79,0,*56
1521324172.94,63949,10.19,71770.0,-9.97,-10.93,-10.79,0,*52
1521324174.17,63950,10.19,71780.0,-9.95,-10.85,-10.85,0,*5C
1521324175.37,63951,10.19,71778.8,-9.97,-10.93,-10.85,0,*58
1521324176.57,63952,10.19,71784.0,-9.97,-10.85,-10.85,0,*5C
1521324177.8,63953,10.19,71802.5,-9.95,-10.85,-10.85,0,*5F
1521324179.0,63954,10.19,71800.5,-9.97,-10.93,-10.85,0,*5D
1521324180.21,63955,10.19,71798.0,-9.97,-10.85,-10.85,0,*5B
1521324181.41,63956,10.19,71794.0,-9.97,-10.85,-10.85,0,*58
1521324182.61,63957,10.19,71796.8,-9.97,-10.85,-10.85,0,*59
1521324183.81,63958,10.25,71792.8,-9.97,-10.85,-10.85,0,*56
1521324185.04,63959,10.19,71784.5,-9.95,-10.85,-10.85,0,*55
1521324186.24,63960,10.19,71786.8,-9.97,-10.85,-10.85,0,*5D
1521324187.44,63961,10.19,71782.0,-9.97,-10.85,-10.85,0,*5C
1521324188.65,63962,10.19,71782.3,-9.97,-10.93,-10.85,0,*58
1521324189.85,63963,10.19,71780.3,-9.97,-10.85,-10.93,0,*59
1521324191.06,63964,10.19,71786.8,-9.97,-10.85,-10.85,0,*59
1521324192.26,63965,10.19,71782.8,-9.97,-10.93,-10.85,0,*5F
1521324193.5,63966,10.19,71772.0,-9.95,-10.93,-10.93,0,*59
1521324194.71,63967,10.19,71764.8,-9.97,-10.93,-10.93,0,*5A
1521324195.92,63968,10.19,71764.3,-9.97,-10.93,-10.93,0,*55
1521324197.15,63969,10.19,71772.8,-9.99,-10.89,-10.89,0,*5A
1521324198.36,63970,10.19,71774.5,-9.97,-10.93,-10.85,0,*5B
1521324199.57,63971,10.19,71768.5,-9.97,-10.93,-10.93,0,*5D
1521324200.78,63972,10.25,71782.8,-9.97,-10.93,-10.85,0,*59
1521324201.99,63973,10.19,71782.3,-9.97,-10.93,-10.85,0,*58
1521324203.22,63974,10.19,71782.0,-9.95,-10.93,-10.93,0,*5A
1521324204.43,63975,10.19,71782.3,-9.97,-10.93,-10.93,0,*59
1521324205.66,63976,10.19,71788.3,-9.95,-10.93,-10.85,0,*5F
1521324206.89,63977,10.19,71790.8,-9.95,-10.93,-10.85,0,*5E
1521324208.12,63978,10.19,71786.3,-9.95,-10.93,-10.93,0,*56
1521324209.33,63979,10.19,71784.5,-9.97,-10.85,-10.93,0,*52
1521324210.56,63980,10.19,71784.0,-9.95,-10.93,-10.93,0,*51
1521324211.78,63981,10.19,71786.3,-9.97,-10.93,-10.93,0,*52
1521324212.99,63982,10.19,71784.5,-9.97,-10.97,-10.93,0,*55
1521324214.21,63983,10.19,71794.5,-9.97,-10.97,-10.97,0,*50
1521324215.43,63984,10.19,71788.3,-9.97,-10.93,-10.93,0,*57
1521324216.66,63985,10.19,71792.0,-9.95,-10.93,-10.93,0,*54
1521324217.87,63986,10.19,71794.3,-9.97,-10.85,-10.93,0,*52
1521324219.13,63987,10.19,71794.8,-9.95,-11.07,-10.97,0,*5E
1521324220.36,63988,10.19,71782.5,-9.97,-11.07,-10.85,0,*50
1521324221.57,63989,10.19,71794.3,-9.97,-10.97,-10.85,0,*59
1521324222.79,63990,10.19,71796.5,-9.97,-10.97,-10.93,0,*56
1521324224.01,63991,10.19,71798.0,-9.97,-10.97,-10.93,0,*57
1521324225.22,63992,10.19,71800.3,-9.97,-10.93,-10.93,0,*50
1521324226.43,63993,10.19,71810.8,-9.97,-10.97,-10.85,0,*52
1521324227.64,63994,10.19,71808.3,-9.97,-10.93,-10.93,0,*56
1521324228.86,63995,10.19,71810.3,-9.97,-10.97,-10.93,0,*53
1521324230.07,63996,10.19,71810.3,-9.97,-10.97,-10.93,0,*50
1521324231.29,63997,10.19,71802.5,-9.97,-10.97,-10.93,0,*51
1521324232.51,63998,10.19,71790.5,-9.97,-10.97,-10.97,0,*5A
1521324233.75,63999,10.19,71796.5,-9.95,-10.97,-10.97,0,*59
1521324234.96,64000,10.19,71794.8,-9.97,-10.93,-10.93,0,*55
1521324236.2,64001,10.19,71788.0,-9.99,-11.01,-11.01,0,*5A
1521324237.41,64002,10.19,71788.3,-9.97,-10.93,-10.85,0,*50
1521324238.65,64003,10.19,71798.0,-9.97,-11.07,-10.93,0,*5A
1521324239.86,64004,10.19,71790.8,-9.97,-10.97,-10.93,0,*55
1521324241.12,64005,10.19,71782.8,-9.95,-11.07,-10.93,0,*5E
1521324242.37,64006,10.19,71786.0,-9.99,-11.01,-10.97,0,*53
1521324243.6,64007,10.19,71788.8,-9.99,-11.11,-11.01,0,*5D
1521324244.84,64008,10.19,71792.3,-9.99,-10.97,-11.01,0,*5D
1521324246.08,64009,10.19,71788.8,-9.99,-11.01,-11.01,0,*52
1521324247.3,64010,10.19,71784.0,-9.97,-10.97,-10.97,0,*54
1521324248.52,64011,10.19,71786.3,-9.97,-10.97,-10.97,0,*55
1521324249.73,64012,10.19,71784.0,-9.97,-10.97,-10.93,0,*52
1521324250.95,64013,10.19,71776.5,-9.97,-10.97,-10.93,0,*53
1521324252.17,64014,10.19,71782.3,-9.97,-10.97,-10.97,0,*50
1521324253.38,64015,10.19,71782.8,-9.97,-10.93,-10.97,0,*55
1521324254.63,64016,10.19,71778.0,-9.99,-11.01,-10.97,0,*52
1521324255.84,64017,10.19,71782.0,-9.97,-10.97,-10.93,0,*57
1521324257.08,64018,10.19,71786.0,-9.97,-11.07,-10.93,0,*50
1521324258.32,64019,10.19,71782.8,-9.99,-11.01,-11.01,0,*53
1521324259.54,64020,10.19,71780.3,-9.97,-10.97,-10.93,0,*53
1521324260.78,64021,10.19,71784.0,-9.99,-11.01,-10.97,0,*56
1521324262.01,64022,10.19,71794.8,-9.99,-10.89,-10.89,0,*5B
1521324263.25,64023,10.19,71788.0,-9.99,-11.01,-10.97,0,*54
1521324264.49,64024,10.19,71778.3,-9.99,-11.01,-11.01,0,*5D
1521324265.73,64025,10.19,71786.8,-9.99,-11.01,-10.97,0,*52
1521324266.97,64026,10.19,71784.0,-9.99,-11.01,-11.01,0,*5F
1521324268.21,64027,10.19,71784.3,-9.99,-11.01,-10.97,0,*50
1521324269.45,64028,10.19,71784.8,-9.99,-11.01,-10.97,0,*5F
1521324270.7,64029,10.19,71788.3,-9.99,-11.01,-10.97,0,*5E
1521324271.93,64030,10.19,71786.0,-9.99,-11.01,-11.01,0,*58
1521324273.16,64031,10.19,71782.3,-10.01,-11.01,-10.97,0,*6E
1521324274.4,64032,10.19,71782.8,-9.99,-10.97,-10.97,0,*5A
1521324275.62,64033,10.19,71784.8,-9.97,-10.93,-10.97,0,*51
1521324276.84,64034,10.19,71780.8,-10.01,-11.01,-10.89,0,*64
1521324278.08,64035,10.19,71784.8,-9.99,-11.01,-10.89,0,*5C
1521324279.32,64036,10.19,71792.3,-9.99,-11.01,-10.97,0,*50
1521324280.55,64037,10.19,71790.8,-9.99,-11.11,-11.01,0,*5E
1521324281.77,64038,10.19,71794.3,-10.01,-11.11,-10.97,0,*66
1521324283.01,64039,10.19,71800.0,-9.99,-10.97,-10.97,0,*51
1521324284.26,64040,10.19,71800.0,-9.99,-11.01,-10.97,0,*51
1521324285.48,64041,10.19,71792.5,-10.01,-10.97,-11.01,0,*69
1521324286.71,64042,10.19,71792.8,-9.99,-10.89,-10.97,0,*52
1521324287.96,64043,10.19,71794.0,-9.99,-10.97,-10.97,0,*5C
1521324289.2,64044,10.19,71790.5,-9.99,-10.97,-10.97,0,*5B
1521324290.44,64045,10.19,71790.8,-9.99,-10.97,-10.97,0,*5A
1521324291.67,64046,10.25,71800.8,-10.01,-10.97,-10.97,0,*60
1521324292.91,64047,10.19,71802.0,-9.99,-10.97,-10.97,0,*58
1521324294.15,64048,10.25,71800.3,-9.99,-10.97,-10.97,0,*57
1521324295.4,64049,10.19,71790.5,-9.99,-10.97,-10.97,0,*56
1521324296.64,64050,10.19,71796.0,-9.99,-10.97,-10.89,0,*51
1521324297.88,64051,10.19,71794.5,-9.99,-10.97,-11.01,0,*51
1521324299.1,64052,10.19,71796.5,-10.01,-10.97,-10.97,0,*65
1521324300.34,64053,10.19,71802.3,-9.99,-10.97,-10.97,0,*5D
1521324301.58,64054,10.19,71802.0,-9.99,-10.89,-10.97,0,*55
1521324302.82,64055,10.19,71798.5,-9.99,-11.01,-10.97,0,*55
1521324304.06,64056,10.19,71806.0,-9.99,-10.97,-10.89,0,*57
1521324305.3,64057,10.19,71798.5,-9.99,-10.97,-10.97,0,*59
1521324306.55,64058,10.19,71802.0,-9.99,-10.97,-10.97,0,*56
1521324307.78,64059,10.19,71800.0,-9.99,-10.89,-10.89,0,*57
1521324309.02,64060,10.25,71800.3,-9.99,-10.97,-10.97,0,*5D
1521324310.26,64061,10.19,71796.5,-9.99,-10.97,-10.89,0,*53
1521324311.48,64062,10.19,71796.0,-10.01,-10.97,-10.89,0,*69
1521324312.72,64063,10.19,71798.0,-9.99,-10.97,-10.97,0,*5E
1521324313.95,64064,10.19,71796.0,-10.01,-10.97,-10.97,0,*60
1521324315.19,64065,10.19,71798.8,-9.99,-10.97,-10.89,0,*57
1521324316.4,64066,10.19,71796.0,-10.01,-10.89,-10.89,0,*62
1521324317.64,64067,10.19,71798.0,-9.99,-10.97,-10.89,0,*55
1521324318.88,64068,10.19,71788.3,-9.99,-10.97,-10.89,0,*5A
1521324320.12,64069,10.19,71788.5,-9.99,-10.97,-10.89,0,*5B
1521324321.36,64070,10.19,71794.8,-9.99,-10.97,-10.89,0,*53
1521324322.6,64071,10.19,71796.8,-9.99,-10.97,-10.89,0,*52
1521324323.83,64072,10.19,71796.5,-9.99,-10.89,-10.97,0,*51
1521324325.07,64073,10.19,71798.5,-9.99,-10.89,-10.89,0,*5F
1521324326.31,64074,10.19,71802.0,-9.99,-11.01,-10.97,0,*56
1521324327.53,64075,10.19,71802.0,-10.01,-10.97,-10.89,0,*6F
1521324328.75,64076,10.19,71818.8,-10.01,-10.97,-10.89,0,*6C
1521324329.99,64077,10.19,71812.8,-9.99,-10.89,-10.97,0,*54
1521324331.2,64078,10.19,71810.5,-10.01,-10.89,-10.89,0,*6D
1521324332.43,64079,10.19,71804.8,-10.01,-10.97,-10.97,0,*6C
1521324333.67,64080,10.19,71804.5,-9.99,-10.97,-10.89,0,*5C
1521324334.9,64081,10.19,71810.8,-9.99,-10.89,-10.97,0,*5D
1521324336.12,64082,10.25,71816.8,-10.01,-10.97,-10.89,0,*67
1521324337.34,64083,10.19,71812.3,-10.01,-10.89,-10.89,0,*69
1521324338.55,64084,10.19,71812.0,-10.01,-10.89,-10.89,0,*6E
1521324339.78,64085,10.19,71804.0,-9.99,-10.89,-10.89,0,*56
1521324341.02,64086,10.19,71808.5,-9.99,-10.97,-10.89,0,*5A
1521324342.24,64087,10.19,71814.0,-10.01,-10.89,-10.97,0,*62
1521324343.46,64088,10.19,71810.0,-10.01,-10.89,-10.89,0,*62
1521324344.67,64089,10.19,71804.0,-10.01,-10.89,-10.89,0,*63
1521324345.89,64090,10.19,71806.0,-10.01,-10.97,-10.89,0,*64
1521324347.13,64091,10.19,71806.8,-9.99,-10.97,-10.89,0,*5C
1521324348.36,64092,10.19,71802.3,-9.99,-10.89,-10.89,0,*50
1521324349.59,64093,10.19,71804.8,-10.01,-10.97,-10.89,0,*67
1521324350.83,64094,10.19,71802.3,-9.99,-10.97,-10.89,0,*59
1521324352.04,64095,10.19,71806.5,-10.01,-10.89,-10.89,0,*6E
1521324353.26,64096,10.19,71808.5,-10.01,-10.89,-10.97,0,*62
1521324354.47,64097,10.19,71808.0,-10.01,-10.89,-10.85,0,*60
1521324355.69,64098,10.19,71804.8,-10.01,-10.97,-10.97,0,*63
1521324356.92,64099,10.19,71802.5,-10.01,-10.97,-10.97,0,*62
1521324358.15,64100,10.19,71806.0,-9.99,-10.89,-10.89,0,*5A
1521324359.37,64101,10.19,71808.5,-10.01,-10.97,-10.89,0,*6D
1521324360.6,64102,10.19,71808.5,-9.99,-10.89,-10.89,0,*58
1521324361.82,64103,10.19,71804.3,-10.01,-10.89,-10.89,0,*60
1521324363.03,64104,10.19,71810.3,-10.01,-10.89,-10.89,0,*67
1521324364.25,64105,10.19,71806.3,-10.01,-10.89,-10.89,0,*66
1521324365.49,64106,10.19,71796.0,-9.99,-10.97,-10.89,0,*53
1521324366.72,64107,10.19,71800.3,-9.99,-10.89,-10.89,0,*5D
1521324367.94,64108,10.19,71792.0,-10.01,-10.97,-10.89,0,*64
1521324369.16,64109,10.19,71790.8,-10.01,-10.89,-10.89,0,*6A
1521324370.39,64110,10.19,71786.5,-9.99,-10.89,-10.89,0,*5B
1521324371.6,64111,10.19,71784.8,-10.01,-10.89,-10.89,0,*63
1521324372.82,64112,10.19,71792.8,-10.01,-10.89,-10.89,0,*60
1521324374.03,64113,10.19,71794.5,-10.01,-10.89,-10.89,0,*61
1521324375.25,64114,10.19,71798.0,-10.01,-10.97,-10.89,0,*69
1521324376.47,64115,10.19,71800.8,-10.01,-10.89,-10.89,0,*67
1521324377.68,64116,10.19,71804.3,-10.01,-10.89,-10.89,0,*64
1521324378.9,64117,10.25,71800.8,-10.01,-10.89,-10.89,0,*65
1521324380.11,64118,10.19,71800.5,-10.01,-10.89,-10.89,0,*6A
1521324381.34,64119,10.19,71810.5,-9.99,-10.89,-10.89,0,*52
1521324382.56,64120,10.19,71800.8,-10.01,-10.89,-10.89,0,*61
1521324383.79,64121,10.19,71812.3,-9.99,-10.89,-10.85,0,*55
1521324385.0,64122,10.19,71818.0,-10.01,-10.89,-10.89,0,*63
1521324386.23,64123,10.19,71806.8,-9.99,-10.89,-10.85,0,*57
1521324387.43,64124,10.19,71806.5,-10.01,-10.89,-10.85,0,*69
1521324388.65,64125,10.19,71804.3,-10.01,-10.97,-10.85,0,*67
1521324389.86,64126,10.19,71800.8,-10.01,-10.89,-10.85,0,*6B
1521324391.09,64127,10.19,71806.3,-9.99,-10.89,-10.89,0,*5F
1521324392.32,64128,10.19,71810.8,-9.99,-10.89,-10.89,0,*50
1521324393.54,64129,10.19,71810.3,-10.01,-10.89,-10.89,0,*68
1521324394.75,64130,10.19,71806.8,-10.01,-10.89,-10.89,0,*60
1521324395.97,64131,10.19,71804.0,-10.01,-10.89,-10.89,0,*61
1521324397.19,64132,10.19,71804.0,-10.01,-10.89,-10.97,0,*6D
1521324398.4,64133,10.19,71802.5,-10.01,-10.89,-10.89,0,*63
1521324399.61,64134,10.19,71798.0,-10.01,-10.89,-10.89,0,*64
1521324400.85,64135,10.19,71796.5,-9.99,-10.89,-10.89,0,*5C
1521324402.08,64136,10.25,71798.0,-9.99,-10.89,-10.89,0,*5F
1521324403.31,64137,10.19,71798.0,-9.99,-10.89,-10.89,0,*5E
1521324404.54,64138,10.19,71792.5,-9.99,-10.89,-10.89,0,*51
1521324405.76,64139,10.19,71796.8,-10.01,-10.97,-10.89,0,*66
1521324407.0,64140,10.19,71792.0,-9.99,-10.97,-10.89,0,*51
1521324408.22,64141,10.19,71802.8,-10.01,-10.89,-10.97,0,*69
1521324409.44,64142,10.19,71796.5,-10.01,-10.89,-10.89,0,*65
1521324410.66,64143,10.19,71802.0,-10.01,-10.97,-10.89,0,*6B
1521324411.87,64144,10.19,71784.5,-10.01,-10.89,-10.89,0,*63
1521324413.09,64145,10.19,71802.5,-10.01,-10.89,-10.89,0,*62
1521324414.31,64146,10.19,71796.8,-10.01,-10.97,-10.89,0,*6E
1521324415.52,64147,10.19,71796.8,-10.01,-10.89,-10.89,0,*60
1521324416.75,64148,10.19,71786.5,-10.01,-10.97,-10.89,0,*60
1521324417.96,64149,10.25,71788.3,-10.01,-10.89,-10.89,0,*6E
1521324419.19,64150,10.19,71792.5,-9.99,-10.89,-10.89,0,*5F
1521324420.41,64151,10.19,71786.0,-10.01,-10.89,-10.89,0,*67
1521324421.64,64152,10.19,71796.3,-9.99,-10.89,-10.89,0,*5D
1521324422.85,64153,10.19,71804.3,-10.01,-10.89,-10.89,0,*65
1521324424.07,64154,10.19,71794.0,-10.01,-10.89,-10.89,0,*62
1521324425.29,64155,10.19,71798.8,-10.01,-10.97,-10.89,0,*6C
1521324426.52,64156,10.19,71802.0,-10.01,-10.97,-10.97,0,*60
1521324427.75,64157,10.19,71798.8,-9.99,-10.89,-10.89,0,*58
1521324428.99,64158,10.19,71782.3,-9.99,-10.97,-10.89,0,*58
1521324430.2,64159,10.19,71786.8,-10.01,-10.89,-10.89,0,*6F
1521324431.42,64160,10.19,71792.8,-10.01,-10.89,-10.89,0,*65
1521324432.63,64161,10.19,71786.3,-10.01,-10.89,-10.89,0,*64
1521324433.85,64162,10.19,71782.8,-10.01,-10.89,-10.89,0,*67
1521324435.07,64163,10.19,71788.5,-10.01,-10.97,-10.89,0,*69
1521324436.28,64164,10.19,71800.0,-10.01,-10.89,-10.89,0,*61
1521324437.5,64165,10.19,71806.0,-10.01,-10.97,-10.89,0,*6F
1521324438.73,64166,10.19,71796.5,-10.01,-10.97,-10.97,0,*63
1521324439.95,64167,10.19,71806.3,-10.01,-10.89,-10.97,0,*6D
1521324441.17,64168,10.19,71804.0,-10.01,-10.89,-10.97,0,*62
1521324442.39,64169,10.19,71800.0,-10.01,-10.97,-10.89,0,*63
1521324443.62,64170,10.19,71800.0,-9.99,-10.89,-10.89,0,*5D
1521324444.84,64171,10.19,71802.8,-10.01,-10.89,-10.97,0,*6A
1521324446.05,64172,10.19,71792.8,-10.01,-10.89,-10.89,0,*66
1521324447.28,64173,10.19,71800.5,-10.01,-10.97,-10.89,0,*68
1521324448.49,64174,10.19,71798.0,-10.01,-10.89,-10.97,0,*6F
1521324449.72,64175,10.19,71794.8,-10.01,-10.97,-10.89,0,*6E
1521324450.94,64176,10.19,71792.0,-10.01,-11.01,-10.89,0,*63
1521324452.18,64177,10.19,71784.8,-9.99,-11.01,-10.97,0,*54
1521324453.4,64178,10.19,71780.0,-10.01,-10.97,-10.97,0,*6C
1521324454.63,64179,10.19,71786.3,-10.01,-10.97,-10.89,0,*62
1521324455.87,64180,10.19,71784.8,-9.99,-10.97,-11.01,0,*5C
1521324457.11,64181,10.19,71794.3,-9.99,-10.97,-10.97,0,*53
1521324458.33,64182,10.19,71798.8,-10.01,-10.97,-10.97,0,*69
1521324459.55,64183,10.19,71796.3,-10.01,-10.89,-10.89,0,*68
1521324460.77,64184,10.19,71798.3,-10.01,-11.01,-10.97,0,*61
1521324462.02,64185,10.19,71798.3,-10.03,-11.01,-10.93,0,*66
1521324463.24,64186,10.19,71792.5,-10.01,-10.97,-10.97,0,*6D
1521324464.49,64187,10.19,71792.5,-10.03,-11.01,-11.01,0,*6E
1521324465.73,64188,10.19,71790.5,-10.03,-11.01,-11.01,0,*61
1521324466.95,64189,10.19,71798.8,-10.01,-10.97,-10.89,0,*6D
1521324468.18,64190,10.19,71806.3,-10.01,-11.01,-10.97,0,*64
1521324469.41,64191,10.19,71808.3,-10.01,-10.97,-10.97,0,*6B
1521324470.63,64192,10.19,71802.8,-10.01,-10.97,-10.89,0,*67
1521324471.85,64193,10.19,71802.8,-10.01,-11.01,-10.97,0,*67
1521324473.08,64194,10.19,71808.0,-10.01,-11.01,-10.97,0,*60
1521324474.35,64195,10.19,71818.3,-10.03,-11.07,-11.01,0,*6B
1521324475.61,64196,10.19,71810.0,-10.03,-11.07,-11.01,0,*68
1521324476.84,64197,10.19,71800.0,-10.01,-11.01,-10.97,0,*63
1521324478.06,64198,10.19,71804.0,-10.01,-11.01,-11.01,0,*62
1521324479.28,64199,10.19,71812.0,-10.01,-11.01,-11.01,0,*63
1521324480.5,64200,10.19,71800.3,-10.01,-11.01,-11.01,0,*60
1521324481.74,64201,10.19,71810.8,-9.99,-11.11,-11.01,0,*59
1521324482.96,64202,10.19,71796.0,-10.01,-11.01,-11.01,0,*62
1521324484.18,64203,10.19,71804.0,-10.01,-11.11,-10.97,0,*6C
1521324485.44,64204,10.19,71802.5,-10.03,-11.07,-11.15,0,*65
1521324486.66,64205,10.19,71798.0,-10.01,-11.01,-11.11,0,*64
1521324487.88,64206,10.19,71798.5,-10.01,-11.01,-11.01,0,*66